Hourly Data Report for May 20, 2012

All times are specified in Local Standard Time (LST). Add 1 hour to adjust for Daylight Saving Time where and when it is observed.

YARMOUTH A
NOVA SCOTIA

43°49'37.000" N
66°05'17.000" W
42.90 m
8206495
71603
YQI

Download Data

Hourly Data (May 2012)
Hourly Data Report for May 20, 2012
Temp Definition
°C
Dew Point Temp Definition
°C
Rel Hum Definition
%
Wind Dir Definition
10's deg

Wind Spd Definition
km/h
Visibility Definition
km
Stn Press Definition
kPa
Hmdx Definition


Wind Chill Definition


Weather Definition


TIME
00:00 Legend Double Dagger 9.6 5.0 73 30 10 10.0 101.65     LegendNANA
01:00 Legend Double Dagger 10.2 4.8 69 31 19 10.0 101.68     LegendNANA
02:00 Legend Double Dagger 10.2 4.6 68 32 18 10.0 101.66     Mostly Cloudy
03:00 Legend Double Dagger 10.1 4.3 67 31 11 10.0 101.66     LegendNANA
04:00 Legend Double Dagger 8.8 5.2 78   0 10.0 101.71     LegendNANA
05:00 Legend Double Dagger 9.6 6.0 78 27 4 10.0 101.76     Mostly Cloudy
06:00 Legend Double Dagger 10.4 7.1 80 29 8 10.0 101.81     LegendNANA
07:00 Legend Double Dagger 12.8 7.9 72 31 4 10.0 101.88     LegendNANA
08:00 Legend Double Dagger 16.2 9.7 65 28 4 10.0 101.92     Mainly Clear
09:00 Legend Double Dagger 16.4 10.3 67 29 8 10.0 101.95     LegendNANA
10:00 Legend Double Dagger 21.2 12.5 57 24 11 10.0 101.96     LegendNANA
11:00
12:00 Legend Double Dagger 19.6 8.4 48 20 21 10.0 102.05     LegendNANA
13:00 Legend Double Dagger 18.4 9.3 55 18 20 10.0 102.04     LegendNANA
14:00 Legend Double Dagger 19.0 7.2 46 20 20 10.0 102.07     Mainly Clear
15:00 Legend Double Dagger 19.1 8.6 50 20 18 10.0 102.08     LegendNANA
16:00 Legend Double Dagger 20.4 8.5 46 21 17 10.0 102.10     LegendNANA
17:00 Legend Double Dagger 18.6 9.5 55 19 14 10.0 102.11     Mainly Clear
18:00 Legend Double Dagger 15.8 7.1 56 19 19 10.0 102.13     LegendNANA
19:00 Legend Double Dagger 13.4 7.7 68 19 15 10.0 102.19     LegendNANA
20:00 Legend Double Dagger 11.7 7.5 75 18 10 10.0 102.24     Mainly Clear
21:00 Legend Double Dagger 11.4 7.5 77 16 8 10.0 102.26     LegendNANA
22:00 Legend Double Dagger 10.8 7.9 82 15 6 10.0 102.23     LegendNANA
23:00 Legend Double Dagger 10.1 8.1 87 17 9 10.0 102.22     Mainly Clear

Notes on Data Quality.

Legend

  • E = Estimated
  • M = Missing
  • NA = Not Available
  • ‡ = Partner data that is not subject to review by the National Climate Archives
Date modified: